Flag for Cyprus Weather past 2 weeks in Limassol, Cyprus

Now
86 °F

Passing clouds.


Feels Like: 92 °F
Forecast: 73 / 89 °F
Wind: 13 mph from Southwest

Location: Akrotiri

Current Time: Aug 27, 2014 at 4:19:26 PM

Latest Report: Aug 27, 2014 at 3:50 PM


Visibility: N/A

Pressure: 29.71 "Hg

Humidity: 62%

Dew point: 72 °F

Location of LimassolLocation

Historic Weather in Limassol — Graph

°F

Limassol temperature yesterday

Maximum temperature yesterday: 88 °F (at 12:50 PM)
Minimum temperature yesterday: 75 °F (at 6:50 AM)
Average temperature yesterday: 83 °F

Past Weeks' High & Low Weather Summary

 TemperatureHumidityPressure
High99 °F (Aug 24, 11:50 AM)100% (Aug 25, 3:50 AM)29.89 "Hg (Aug 25, 3:50 AM)
Low73 °F (Aug 15, 5:50 AM)22% (Aug 24, 11:50 AM)29.53 "Hg (Aug 17, 6:50 PM)
Average83 °F76%29.73 "Hg
* Reported Aug 12 2:50 PM — Aug 27 2:50 PM, Limassol, Weather by CustomWeather, © 2014

Note: Actual official high and low records may vary slightly from our data, if they occured in-between our weather recording intervals... More about our weather records

Advertising

Limassol weather history for previous 24 hours

 ConditionsComfort  
Time TempWeatherWind HumidityBarometerVisibility
2:50 PM
Aug 27
86 °FPassing clouds.13 mph66%29.71 "HgN/A
1:50 PM86 °FPassing clouds.13 mph62%29.74 "HgN/A
12:50 PM86 °FPassing clouds.10 mph66%29.74 "HgN/A
11:50 AM86 °FPassing clouds.9 mph66%29.74 "HgN/A
10:50 AM84 °FPassing clouds.9 mph70%29.77 "HgN/A
9:50 AM84 °FPassing clouds.6 mph70%29.77 "HgN/A
8:50 AM82 °FPassing clouds.2 mph74%29.77 "HgN/A
7:50 AM79 °FPartly sunny.2 mph84%29.74 "HgN/A
6:50 AM75 °FPassing clouds.No wind74%29.74 "HgN/A
5:50 AM73 °FPassing clouds.2 mph78%29.74 "HgN/A
4:50 AM75 °FClear.2 mph78%29.71 "Hg10 mi
3:50 AM75 °FPassing clouds.1 mph89%29.74 "HgN/A
2:50 AM77 °FPassing clouds.1 mph94%29.74 "HgN/A
1:50 AM79 °FPassing clouds.5 mph94%29.74 "HgN/A
12:50 AM81 °FPassing clouds.6 mph89%29.74 "HgN/A
11:50 PM
Aug 26
81 °FClear.7 mph89%29.74 "Hg10 mi
10:50 PM81 °FClear.8 mph89%29.74 "Hg10 mi
9:50 PM81 °FClear.8 mph89%29.74 "Hg10 mi
8:50 PM82 °FClear.8 mph84%29.74 "Hg10 mi
7:50 PM82 °FPassing clouds.8 mph84%29.74 "HgN/A
6:50 PM84 °FSunny.10 mph79%29.71 "Hg10 mi
5:50 PM86 °FSunny.10 mph75%29.71 "Hg10 mi
4:50 PM86 °FPassing clouds.10 mph70%29.71 "HgN/A
Weather by CustomWeather, © 2014

See weather overviewHow to use our weather pages